Flag for U.S.A. Weather past 2 weeks in Midland, Texas, U.S.A.

Now
74 °F

Clear.


Feels Like: 76 °F
Forecast: 68 / 92 °F
Wind: 10 mph from South

Location: Midland International Airport

Current Time: Oct 1, 2014 at 1:10:01 AM

Latest Report: Oct 1, 2014 at 12:53 AM


Visibility: 10 mi

Pressure: 29.67 "Hg

Humidity: 69%

Dew point: 63 °F

Location of MidlandLocation

Historic Weather in Midland — Graph

°F

Midland temperature yesterday

Maximum temperature yesterday: 90 °F (at 3:53 PM)
Minimum temperature yesterday: 63 °F (at 5:53 AM)
Average temperature yesterday: 77 °F

Past Weeks' High & Low Weather Summary

 TemperatureHumidityPressure
High90 °F (Sep 17, 4:53 PM)100% (Sep 28, 9:00 AM)30.17 "Hg (Sep 28, 9:00 AM)
Low59 °F (Sep 28, 7:53 AM)32% (Sep 30, 3:53 PM)29.62 "Hg (Sep 30, 6:53 PM)
Average73 °F73%29.96 "Hg
* Reported Sep 15 11:53 PM — Sep 30 11:53 PM, Midland, Weather by CustomWeather, © 2014

Note: Actual official high and low records may vary slightly from our data, if they occured in-between our weather recording intervals... More about our weather records

Advertising

Midland weather history for previous 24 hours

 ConditionsComfort  
Time TempWeatherWind HumidityBarometerVisibility
11:53 PM
Sep 30
76 °FPassing clouds.13 mph64%29.68 "Hg10 mi
10:53 PM77 °FClear.13 mph64%29.68 "Hg10 mi
9:53 PM79 °FClear.14 mph60%29.67 "Hg10 mi
8:53 PM84 °FClear.12 mph48%29.65 "Hg10 mi
7:53 PM84 °FSunny.6 mph37%29.65 "Hg10 mi
6:53 PM89 °FSunny.10 mph32%29.62 "Hg10 mi
5:53 PM90 °FSunny.10 mph32%29.63 "Hg10 mi
4:53 PM90 °FSunny.9 mph33%29.65 "Hg10 mi
3:53 PM90 °FSunny.12 mph32%29.66 "Hg10 mi
2:53 PM89 °FSunny.10 mph36%29.68 "Hg10 mi
1:53 PM87 °FSunny.12 mph39%29.71 "Hg10 mi
12:53 PM85 °FSunny.8 mph43%29.74 "Hg10 mi
11:53 AM81 °FSunny.13 mph51%29.76 "Hg10 mi
10:53 AM77 °FSunny.14 mph58%29.78 "Hg10 mi
9:53 AM73 °FSunny.15 mph66%29.79 "Hg10 mi
8:53 AM69 °FBroken clouds.17 mph79%29.79 "Hg10 mi
7:53 AM67 °FPassing clouds.13 mph81%29.78 "Hg10 mi
6:53 AM65 °FOvercast.13 mph81%29.77 "Hg10 mi
5:53 AM63 °FClear.6 mph84%29.78 "Hg10 mi
4:53 AM64 °FClear.8 mph84%29.78 "Hg10 mi
3:53 AM66 °FClear.8 mph78%29.79 "Hg10 mi
2:53 AM68 °FClear.9 mph73%29.80 "Hg10 mi
1:53 AM70 °FClear.14 mph68%29.80 "Hg10 mi
Weather by CustomWeather, © 2014

See weather overviewHow to use our weather pages